W1EZY Weather Reports


time (UTC)temp
F
wind
direction
speed
knots
gust
knots
rain 1hr
in
rain 24hr
in
rain mn
in
humidity
%
barometer
mb
20260510071015 54 201 0.0 0.9 0.00 0.13 0.00 95 1010.9
20260510065517 54 197 0.0 0.0 0.00 0.13 0.00 95 1010.6
20260510064037 54 146 0.0 0.0 0.00 0.13 0.00 95 1010.6
20260510062519 54 177 0.0 0.0 0.00 0.13 0.00 95 1010.6
20260510061021 54 177 0.0 0.0 0.00 0.13 0.00 95 1010.6
20260510055524 54 205 0.0 0.0 0.00 0.13 0.00 95 1010.8
20260510054025 54 178 0.0 2.6 0.00 0.13 0.00 94 1010.7
20260510052528 55 196 0.0 2.6 0.00 0.13 0.00 94 1010.6
20260510051028 55 165 0.0 1.7 0.00 0.13 0.00 94 1010.7
20260510045530 55 173 0.0 7.8 0.00 0.13 0.00 93 1010.5
20260510044051 55 203 0.0 2.6 0.00 0.13 0.00 93 1010.7
20260510042548 55 202 0.0 6.1 0.00 0.13 0.00 93 1010.9
20260510041013 55 192 0.0 7.0 0.00 0.13 0.00 93 1010.8
20260510035531 55 181 0.0 0.9 0.00 0.13 0.13 92 1010.8
20260510034016 55 196 0.0 2.6 0.01 0.13 0.13 93 1010.9
20260510032515 54 178 0.0 0.0 0.02 0.13 0.13 93 1010.8
20260510031040 53 116 0.0 0.0 0.02 0.13 0.13 93 1010.5
20260510025517 53 158 0.0 0.0 0.02 0.13 0.13 92 1010.8
20260510024021 53 137 0.0 0.0 0.01 0.12 0.12 92 1011.1
20260510022539 53 130 0.0 0.0 0.00 0.11 0.11 91 1011.2
20260510021018 53 119 0.0 0.9 0.01 0.11 0.11 91 1011.4
20260510015521 53 117 0.0 0.0 0.01 0.11 0.11 92 1011.9
20260510014021 53 117 0.0 0.0 0.01 0.11 0.11 91 1012.1
20260510012523 53 122 0.0 0.0 0.02 0.11 0.11 91 1012.1
20260510011024 53 128 0.0 1.7 0.01 0.10 0.10 91 1012.3
20260510005547 54 127 0.0 0.0 0.02 0.10 0.10 90 1012.4
20260510004025 54 186 0.0 1.7 0.02 0.10 0.10 90 1012.5
20260510002543 54 171 0.0 1.7 0.02 0.09 0.09 89 1012.5
20260510001027 54 222 0.0 2.6 0.03 0.09 0.09 89 1012.5
20260509235526 54 190 0.0 3.5 0.03 0.08 0.08 89 1012.5
20260509234031 54 222 0.9 5.2 0.03 0.08 0.08 89 1012.6
20260509232530 55 260 0.0 1.7 0.02 0.07 0.07 89 1012.6
20260509231014 55 209 0.0 0.0 0.01 0.06 0.06 90 1012.4
20260509225513 55 266 0.0 0.9 0.01 0.05 0.05 89 1012.4
20260509224017 56 256 0.0 2.6 0.01 0.05 0.05 88 1012.3
20260509222518 56 237 0.0 3.5 0.02 0.05 0.05 88 1012.2
20260509221023 56 247 0.0 3.5 0.02 0.05 0.05 87 1012.0
20260509215522 57 259 0.0 2.6 0.01 0.04 0.04 86 1011.9
20260509214027 57 200 0.0 0.0 0.01 0.04 0.04 86 1011.7
20260509212525 57 308 0.0 1.7 0.00 0.03 0.03 84 1011.8
20260509211031 58 199 0.0 9.6 0.00 0.03 0.03 82 1011.5
20260509205529 60 213 0.9 8.7 0.00 0.03 0.03 76 1011.3
20260509204014 61 203 0.9 10.4 0.00 0.03 0.03 74 1011.1
20260509202534 61 77 0.0 5.2 0.00 0.03 0.03 75 1011.3
20260509201013 60 166 0.0 9.6 0.00 0.03 0.03 76 1011.4
20260509195517 61 220 0.9 13.0 0.00 0.03 0.03 74 1011.5
20260509194017 61 223 0.9 10.4 0.00 0.03 0.03 73 1011.6
20260509192520 61 194 1.7 15.6 0.00 0.03 0.03 73 1011.7
20260509191042 61 234 0.9 13.0 0.00 0.03 0.03 74 1011.8
20260509185524 61 221 0.0 5.2 0.00 0.03 0.03 74 1011.8
20260509184045 61 200 0.0 9.6 0.00 0.03 0.03 73 1011.8
20260509182523 61 244 0.9 10.4 0.00 0.03 0.03 70 1012.0
20260509181027 61 219 0.9 11.3 0.00 0.03 0.03 70 1012.2
20260509175524 62 215 0.0 3.5 0.00 0.03 0.03 71 1012.1
20260509174028 60 202 0.9 7.0 0.00 0.03 0.03 72 1012.4
20260509172527 59 236 0.0 8.7 0.00 0.03 0.03 75 1012.5
20260509171032 59 174 0.0 6.1 0.00 0.03 0.03 74 1012.7
20260509165551 59 169 0.9 9.6 0.00 0.03 0.03 73 1012.8
20260509164034 59 207 0.9 6.1 0.00 0.03 0.03 72 1012.6
20260509162512 60 130 0.0 4.3 0.00 0.03 0.03 71 1012.6
20260509161052 60 186 0.9 8.7 0.00 0.03 0.03 69 1012.8
20260509155514 60 122 0.9 7.8 0.00 0.03 0.03 74 1012.9
20260509154036 58 186 0.9 7.8 0.00 0.03 0.03 75 1013.0
20260509152518 58 163 0.9 12.2 0.00 0.03 0.03 76 1013.1
20260509151038 57 153 0.9 7.8 0.00 0.03 0.03 75 1013.3
20260509145520 57 169 0.9 7.8 0.00 0.03 0.03 77 1013.3
20260509144019 57 166 0.0 2.6 0.00 0.03 0.03 77 1013.3
20260509142521 57 163 0.0 1.7 0.00 0.03 0.03 78 1013.2
20260509141021 55 207 0.0 1.7 0.00 0.03 0.03 82 1013.2
20260509135520 54 140 0.0 1.7 0.00 0.03 0.03 83 1013.4
20260509134024 54 171 0.0 0.9 0.00 0.03 0.03 85 1013.8
20260509132523 54 178 0.0 2.6 0.00 0.03 0.03 84 1013.9
20260509131029 54 132 0.0 1.7 0.00 0.03 0.03 87 1013.7
20260509125527 54 125 0.0 0.0 0.00 0.03 0.03 86 1013.8
20260509124032 54 116 0.0 0.0 0.00 0.03 0.03 90 1014.1
20260509122530 53 115 0.0 0.0 0.00 0.03 0.03 91 1014.0
20260509121035 52 99 0.0 0.0 0.01 0.03 0.03 95 1013.8
20260509115512 50 45 0.0 0.0 0.02 0.03 0.03 94 1013.9
20260509114017 49 335 0.0 0.0 0.03 0.03 0.03 94 1014.0
20260509112515 48 329 0.0 0.0 0.03 0.03 0.03 93 1014.2
20260509111020 48 260 0.0 0.0 0.02 0.02 0.02 92 1014.3
20260509105539 47 259 0.0 0.0 0.01 0.01 0.01 91 1014.3
20260509104017 47 259 0.0 0.0 0.00 0.00 0.00 91 1014.2
20260509102519 47 259 0.0 0.0 0.00 0.00 0.00 90 1014.2
20260509101020 47 259 0.0 0.0 0.00 0.00 0.00 90 1014.0
20260509095523 46 259 0.0 0.0 0.00 0.00 0.00 90 1013.7
20260509094024 46 259 0.0 0.0 0.00 0.00 0.00 90 1013.6
20260509092525 45 300 0.0 0.0 0.00 0.00 0.00 90 1013.2
20260509091025 45 300 0.0 0.0 0.00 0.00 0.00 89 1013.0
20260509085529 45 300 0.0 0.0 0.00 0.00 0.00 90 1012.9
20260509084030 45 300 0.0 0.0 0.00 0.00 0.00 89 1012.8
20260509082549 45 300 0.0 0.0 0.00 0.00 0.00 89 1012.8
20260509081013 45 300 0.0 0.0 0.00 0.00 0.00 89 1012.9
20260509075512 45 300 0.0 0.0 0.00 0.00 0.00 90 1013.0
20260509074015 45 300 0.0 0.0 0.00 0.00 0.00 89 1013.3
20260509072514 44 300 0.0 0.0 0.00 0.00 0.00 89 1013.2